Weather History for Cape Girardeau, MO

Change the Weather History Date:

Friday, March 30, 2012

  Actual Average Record
Temperature  
Mean Temperature 68 °F 52 °F  
Max Temperature 78 °F 63 °F 84 °F (1986)
Min Temperature 58 °F 40 °F 16 °F (1964)
Degree Days  
Heating Degree Days 0 14  
Month to date heating degree days 203 546  
Since 1 July heating degree days 3122 4043  
Cooling Degree Days 3 0  
Month to date cooling degree days 44 0  
Year to date cooling degree days 44 0  
Growing Degree Days 18 (Base 50)    
Moisture  
Dew Point 60 °F    
Average Humidity 72    
Maximum Humidity 90    
Minimum Humidity 54    
Precipitation  
Precipitation 0.00 in 0.16 in 4.42 in (1985)
Month to date precipitation 3.11 4.24  
Year to date precipitation 7.99 11.12  
Sea Level Pressure  
Sea Level Pressure 29.81 in    
Wind  
Wind Speed 8 mph (SSW)    
Max Wind Speed 20 mph    
Max Gust Speed 28 mph    
Visibility 10 miles    
Events      
T = Trace of Precipitation, MM = Missing Value Source: NWS Daily Summary

Daily Weather History Graph

Daily Weather History Graph

Search for Another Location

Airport:

Trip Planner

Search our weather history database for the weather conditions in past years. The results will help you decide how hot, cold, wet, or windy it might be!

Date:

Astronomy

Mar. 30, 2012 Rise Set
Actual Time 6:46 AM CDT 7:19 PM CDT
Civil Twilight 6:19 AM CDT 7:45 PM CDT
Nautical Twilight 5:49 AM CDT 8:16 PM CDT
Astronomical Twilight 5:17 AM CDT 8:48 PM CDT
Moon 11:57 AM CDT (3/30) 1:49 AM CDT (3/30)
Length of Visible Light 13h 25m
Length of Day
12h 33m
Waxing Crescent, 49% of the Moon is Illuminated
Mar 30
Waxing Crescent
Mar 30
First Quarter
Apr 6
Full
Apr 13
Last Quarter
Apr 21
New

Hourly Weather History & Observations

Time (CDT) Temp. Dew Point Humidity Pressure Visibility Wind Dir Wind Speed Gust Speed Precip Events Conditions
12:53 AM 64.9 °F 57.9 °F 78% 29.84 in 10.0 mi South 8.1 mph - N/A   Clear
1:53 AM 66.0 °F 59.0 °F 78% 29.84 in 10.0 mi SSW 8.1 mph - N/A   Clear
2:53 AM 64.9 °F 59.0 °F 81% 29.85 in 10.0 mi SW 8.1 mph - N/A   Clear
3:53 AM 64.9 °F 57.9 °F 78% 29.84 in 10.0 mi SSW 6.9 mph - N/A   Clear
4:53 AM 63.0 °F 57.9 °F 84% 29.85 in 10.0 mi SSW 6.9 mph - N/A   Clear
5:53 AM 59.0 °F 55.9 °F 90% 29.85 in 10.0 mi South 3.5 mph - N/A   Clear
6:53 AM 60.1 °F 57.0 °F 90% 29.84 in 9.0 mi Calm Calm - N/A   Clear
7:53 AM 63.0 °F 59.0 °F 87% 29.84 in 8.0 mi South 4.6 mph - N/A   Clear
8:53 AM 66.0 °F 59.0 °F 78% 29.86 in 10.0 mi SW 8.1 mph - N/A   Clear
9:53 AM 69.1 °F 60.1 °F 73% 29.86 in 10.0 mi SSW 10.4 mph 17.3 mph N/A   Clear
10:53 AM 72.0 °F 61.0 °F 68% 29.86 in 10.0 mi SW 10.4 mph 18.4 mph N/A   Clear
11:53 AM 73.9 °F 60.1 °F 62% 29.84 in 10.0 mi SSW 9.2 mph 17.3 mph N/A   Clear
12:53 PM 75.0 °F 60.1 °F 60% 29.82 in 10.0 mi SW 16.1 mph 24.2 mph N/A   Partly Cloudy
1:53 PM 77.0 °F 60.1 °F 56% 29.78 in 10.0 mi South 13.8 mph 24.2 mph N/A   Clear
2:53 PM 78.1 °F 60.1 °F 54% 29.76 in 10.0 mi SSW 16.1 mph 27.6 mph N/A   Partly Cloudy
3:53 PM 78.1 °F 61.0 °F 56% 29.75 in 10.0 mi SW 11.5 mph 23.0 mph N/A   Mostly Cloudy
4:53 PM 77.0 °F 61.0 °F 58% 29.74 in 10.0 mi SW 13.8 mph - N/A   Scattered Clouds
5:53 PM 75.9 °F 61.0 °F 60% 29.73 in 10.0 mi SSW 11.5 mph - N/A   Clear
6:53 PM 73.0 °F 60.1 °F 64% 29.74 in 10.0 mi SSW 8.1 mph - N/A   Clear
7:53 PM 70.0 °F 60.1 °F 71% 29.75 in 10.0 mi South 3.5 mph - N/A   Clear
8:53 PM 69.1 °F 60.1 °F 73% 29.77 in 10.0 mi SW 5.8 mph - N/A   Mostly Cloudy
9:53 PM 66.9 °F 60.1 °F 79% 29.79 in 10.0 mi WSW 4.6 mph - N/A   Scattered Clouds
10:53 PM 68.0 °F 61.0 °F 78% 29.79 in 10.0 mi WSW 6.9 mph - N/A   Clear
11:53 PM 66.0 °F 60.1 °F 81% 29.79 in 10.0 mi South 5.8 mph - N/A   Clear